When you browse on this site, cookies collect data to enhance your experience and personalize the content and advertising you see.
Visit our Privacy Policy to learn more. By continuing to use the site, you agree to this use of cookies and data.
  • In Czech Republic
  • List of Countries
  • For 7 days
  • Water Temperature
  • Weather Map
  • Weather Widgets
  • user-avatar
    Login

    Hourly Weather Merrillville

    Today, 22 August, Thursday

    Time Temperature Precipitation Wind Pressure Humidity
    00:00 +22°C° 0.1 mm 3 mps 743 mmHg 79%
    01:00 +22°C° 0 mm 3 mps 742 mmHg 78%
    02:00 +23°C° 0 mm 2 mps 742 mmHg 78%
    03:00 +22°C° 0 mm 1 mps 742 mmHg 78%
    04:00 +22°C° 0 mm 1 mps 742 mmHg 80%
    05:00 +22°C° 0 mm 1 mps 743 mmHg 81%
    06:00 +22°C° 0 mm 1 mps 743 mmHg 83%
    07:00 +23°C° 0 mm 1 mps 743 mmHg 78%
    08:00 +24°C° 0 mm 1 mps 743 mmHg 74%
    09:00 +25°C° 0 mm 1 mps 743 mmHg 70%
    10:00 +26°C° 0.1 mm 2 mps 744 mmHg 67%
    11:00 +26°C° 0.1 mm 2 mps 744 mmHg 65%
    12:00 +27°C° 0.1 mm 2 mps 744 mmHg 63%
    13:00 +26°C° 0.1 mm 3 mps 744 mmHg 65%
    14:00 +26°C° 0.1 mm 3 mps 743 mmHg 68%
    15:00 +25°C° 0.1 mm 3 mps 743 mmHg 71%
    16:00 +25°C° 0.1 mm 3 mps 743 mmHg 73%
    17:00 +23°C° 0.1 mm 4 mps 743 mmHg 76%
    18:00 +22°C° 0.1 mm 4 mps 744 mmHg 79%
    19:00 +21°C° 0 mm 4 mps 744 mmHg 78%
    20:00 +21°C° 0 mm 4 mps 744 mmHg 77%
    21:00 +20°C° 0 mm 4 mps 745 mmHg 76%
    22:00 +20°C° 0 mm 3 mps 745 mmHg 76%
    23:00 +20°C° 0 mm 3 mps 745 mmHg 75%

    Tomorrow, 23 August, Friday

    Time Temperature Precipitation Wind Pressure Humidity
    00:00 +19°C° 0 mm 3 mps 745 mmHg 75%
    01:00 +19°C° 0 mm 3 mps 745 mmHg 76%
    02:00 +18°C° 0 mm 3 mps 745 mmHg 77%
    03:00 +18°C° 0 mm 3 mps 745 mmHg 78%
    04:00 +18°C° 0 mm 3 mps 746 mmHg 79%
    05:00 +17°C° 0 mm 3 mps 746 mmHg 80%
    06:00 +17°C° 0 mm 3 mps 747 mmHg 80%
    07:00 +18°C° 0 mm 3 mps 747 mmHg 76%
    08:00 +19°C° 0 mm 3 mps 747 mmHg 72%
    09:00 +21°C° 0 mm 3 mps 748 mmHg 68%
    10:00 +22°C° 0 mm 3 mps 748 mmHg 64%
    11:00 +22°C° 0 mm 4 mps 748 mmHg 61%
    12:00 +23°C° 0 mm 4 mps 748 mmHg 57%
    13:00 +23°C° 0 mm 4 mps 748 mmHg 57%
    14:00 +23°C° 0 mm 4 mps 747 mmHg 57%
    15:00 +23°C° 0 mm 5 mps 747 mmHg 57%
    16:00 +22°C° 0 mm 4 mps 747 mmHg 61%
    17:00 +20°C° 0 mm 4 mps 747 mmHg 64%
    18:00 +19°C° 0 mm 4 mps 748 mmHg 68%
    19:00 +19°C° 0 mm 4 mps 748 mmHg 69%
    20:00 +18°C° 0 mm 3 mps 748 mmHg 70%
    21:00 +17°C° 0 mm 3 mps 748 mmHg 71%
    22:00 +17°C° 0 mm 3 mps 748 mmHg 74%
    23:00 +17°C° 0 mm 2 mps 748 mmHg 77%

    Day after tomorrow, 24 August, Saturday

    Time Temperature Precipitation Wind Pressure Humidity
    00:00 +16°C° 0 mm 2 mps 748 mmHg 80%
    01:00 +16°C° 0 mm 2 mps 748 mmHg 81%
    02:00 +16°C° 0 mm 2 mps 748 mmHg 81%
    03:00 +15°C° 0 mm 2 mps 748 mmHg 82%
    04:00 +15°C° 0 mm 2 mps 748 mmHg 81%
    05:00 +15°C° 0 mm 2 mps 749 mmHg 80%
    06:00 +15°C° 0 mm 2 mps 749 mmHg 79%
    07:00 +17°C° 0 mm 3 mps 749 mmHg 75%
    08:00 +18°C° 0 mm 3 mps 749 mmHg 71%
    09:00 +20°C° 0 mm 3 mps 750 mmHg 67%
    10:00 +21°C° 0 mm 3 mps 749 mmHg 64%
    11:00 +22°C° 0 mm 3 mps 749 mmHg 61%
    12:00 +24°C° 0 mm 3 mps 749 mmHg 59%
    13:00 +24°C° 0 mm 3 mps 749 mmHg 60%
    14:00 +24°C° 0 mm 3 mps 748 mmHg 61%
    15:00 +24°C° 0 mm 3 mps 748 mmHg 62%
    16:00 +22°C° 0 mm 3 mps 748 mmHg 66%
    17:00 +22°C° 0 mm 3 mps 747 mmHg 70%
    18:00 +21°C° 0 mm 3 mps 747 mmHg 74%
    19:00 +20°C° 0 mm 3 mps 748 mmHg 76%
    20:00 +19°C° 0 mm 3 mps 748 mmHg 79%
    21:00 +18°C° 0 mm 4 mps 748 mmHg 82%
    22:00 +17°C° 0 mm 4 mps 748 mmHg 83%
    23:00 +17°C° 0 mm 3 mps 747 mmHg 84%

    25 August, Sunday

    Time Temperature Precipitation Wind Pressure Humidity
    00:00 +16°C° 0 mm 3 mps 747 mmHg 85%
    01:00 +16°C° 0 mm 3 mps 747 mmHg 85%
    02:00 +14°C° 0 mm 3 mps 747 mmHg 84%
    03:00 +14°C° 0 mm 3 mps 746 mmHg 84%
    04:00 +14°C° 0 mm 3 mps 746 mmHg 85%
    05:00 +14°C° 0 mm 3 mps 746 mmHg 85%
    06:00 +13°C° 0 mm 3 mps 746 mmHg 86%
    07:00 +16°C° 0 mm 3 mps 746 mmHg 81%
    08:00 +18°C° 0 mm 3 mps 746 mmHg 77%
    09:00 +20°C° 0 mm 3 mps 746 mmHg 72%
    10:00 +22°C° 0 mm 3 mps 746 mmHg 69%
    11:00 +24°C° 0 mm 3 mps 745 mmHg 65%
    12:00 +25°C° 0 mm 3 mps 745 mmHg 61%
    13:00 +25°C° 0 mm 3 mps 745 mmHg 61%
    14:00 +26°C° 0 mm 3 mps 744 mmHg 62%
    15:00 +26°C° 0 mm 3 mps 744 mmHg 62%
    16:00 +25°C° 0 mm 3 mps 743 mmHg 68%
    17:00 +24°C° 0 mm 2 mps 743 mmHg 73%
    18:00 +24°C° 0 mm 2 mps 743 mmHg 78%
    19:00 +23°C° 0 mm 2 mps 743 mmHg 81%
    20:00 +21°C° 0 mm 2 mps 743 mmHg 84%
    21:00 +21°C° 0 mm 2 mps 743 mmHg 88%
    22:00 +21°C° 0 mm 3 mps 743 mmHg 88%
    23:00 +21°C° 0 mm 3 mps 742 mmHg 89%

    26 August, Monday

    Time Temperature Precipitation Wind Pressure Humidity
    00:00 +20°C° 0 mm 4 mps 742 mmHg 89%
    01:00 +20°C° 0 mm 4 mps 742 mmHg 88%
    02:00 +20°C° 0 mm 4 mps 741 mmHg 87%
    03:00 +20°C° 0 mm 4 mps 741 mmHg 85%
    04:00 +20°C° 0.2 mm 4 mps 741 mmHg 85%
    05:00 +20°C° 0.2 mm 4 mps 741 mmHg 85%
    06:00 +20°C° 0.2 mm 4 mps 741 mmHg 86%
    07:00 +20°C° 0.8 mm 3 mps 741 mmHg 89%
    08:00 +20°C° 0.8 mm 3 mps 741 mmHg 92%
    09:00 +20°C° 0.8 mm 3 mps 740 mmHg 95%
    10:00 +21°C° 0.1 mm 4 mps 740 mmHg 92%
    11:00 +22°C° 0.1 mm 4 mps 740 mmHg 90%
    12:00 +23°C° 0.1 mm 5 mps 740 mmHg 88%
    13:00 +25°C° 0.2 mm 5 mps 740 mmHg 87%
    14:00 +26°C° 0.2 mm 5 mps 739 mmHg 85%
    15:00 +26°C° 0.2 mm 5 mps 739 mmHg 83%
    16:00 +26°C° 0.1 mm 5 mps 739 mmHg 85%
    17:00 +25°C° 0.1 mm 5 mps 739 mmHg 87%
    18:00 +25°C° 0.1 mm 5 mps 738 mmHg 88%
    19:00 +23°C° 0 mm 5 mps 738 mmHg 90%
    20:00 +23°C° 0 mm 6 mps 738 mmHg 91%
    21:00 +22°C° 0 mm 6 mps 738 mmHg 92%
    22:00 +22°C° 2 mm 6 mps 737 mmHg 93%
    23:00 +23°C° 2 mm 6 mps 737 mmHg 94%

    27 August, Tuesday

    Time Temperature Precipitation Wind Pressure Humidity
    00:00 +23°C° 2 mm 6 mps 737 mmHg 94%
    01:00 +23°C° 3.1 mm 6 mps 737 mmHg 94%
    02:00 +23°C° 3.1 mm 6 mps 736 mmHg 93%
    03:00 +23°C° 3.1 mm 6 mps 736 mmHg 92%
    04:00 +23°C° 0.1 mm 6 mps 736 mmHg 92%
    05:00 +22°C° 0.1 mm 6 mps 736 mmHg 93%
    06:00 +22°C° 0.1 mm 5 mps 736 mmHg 93%
    07:00 +22°C° 0 mm 6 mps 736 mmHg 88%
    08:00 +22°C° 0 mm 6 mps 736 mmHg 84%
    09:00 +23°C° 0 mm 7 mps 737 mmHg 80%
    10:00 +23°C° 0 mm 7 mps 737 mmHg 77%
    11:00 +23°C° 0 mm 7 mps 738 mmHg 75%
    12:00 +22°C° 0 mm 7 mps 738 mmHg 72%
    13:00 +23°C° 0 mm 6 mps 739 mmHg 69%
    14:00 +24°C° 0 mm 6 mps 739 mmHg 66%
    15:00 +26°C° 0 mm 6 mps 740 mmHg 62%
    16:00 +25°C° 0 mm 5 mps 740 mmHg 66%
    17:00 +23°C° 0 mm 5 mps 740 mmHg 70%
    18:00 +22°C° 0 mm 4 mps 741 mmHg 73%
    19:00 +21°C° 0 mm 4 mps 741 mmHg 76%
    20:00 +20°C° 0 mm 4 mps 741 mmHg 79%
    21:00 +19°C° 0 mm 4 mps 741 mmHg 81%
    22:00 +19°C° 0 mm 4 mps 741 mmHg 82%
    23:00 +19°C° 0 mm 4 mps 741 mmHg 82%
    Show more